sat.trackr.live / text

‹ back to catalog

STARLINK-35873

NORAD 67860 · 2026-034L

PAYLOAD ACTIVE UNKNOWN

§ Identity

Operator
Country
US
Launch date
2026-02-20
Launch site
AFETR
Launch vehicle
Mass (kg)
RCS (m²)

Purposes: comms

External: N2YO · Heavens-Above · Gunter

§ Orbital elements

Epoch: 2026-05-25T04:28:19.394976Z

Period
94.11 min
Inclination
53.1576°
Eccentricity
0.0000818
Mean motion
15.30199454 rev/d
Perigee alt
474.7 km
Apogee alt
475.8 km
Semi-major
6,853.4 km
B*
6.3785e-4
RAAN
209.2129°
Arg perigee
82.9550°
Mean anomaly
277.1543°
Rev number
1,577

§ Raw data

STARLINK-358731 67860U 26034L   26145.18633559  .00018579  00000+0  63785-3 0  99912 67860  53.1576 209.2129 0000818  82.9550 277.1543 15.30199454 15777

JSON: /api/v1/satellites/67860 · /tle

For live sub-satellite position, see the globe view (requires WebGL).

§ Visibility from observer

Set your observer location to see the next 7 days of passes ≥ 10°. The values pass through the URL so the page stays shareable.

No JS? Fill the form by hand. The geolocation button needs JavaScript.